Date String (YYYY-MM-DD hh:mm:ss) UTC,Instrument flags,Ambient pressure (hPa),Sample flow (lpm),Bypass flow (lpm),Sample temperature (°C),Ambient temperature (°C),ASC tube jacket temperature (°C),LED temperature (°C),Box temperature (°C),Sample RH (%),Span deviation,Mass concentration (μg/m³),Mass concentration (μg/m³),Mass concentration (μg/m³)
DateTimeUTC,F1_M11,P_M11,Q1_M11,Q2_M11,T1_M11,T2_M11,T3_M11,T4_M11,T5_M11,U1_M11,ZSPAN_M11,X0_M11,X2_M11,X1_M11
2022-10-11 19:06:00,,0820.1,5.02,0.00,29.6,26.9,00.0,38.3,31.4,08.8,0000.0,0009.62,0005.42,0004.95
2022-10-11 19:07:00,,0820.0,5.01,0.00,29.6,27.0,00.0,38.3,31.3,09.0,0000.0,0009.88,0005.40,0004.95
2022-10-11 19:08:00,,0820.0,5.00,0.00,29.6,27.3,00.0,38.3,31.4,08.9,0000.0,0010.52,0005.41,0004.94
2022-10-11 19:09:00,,0820.0,5.00,0.00,29.6,27.6,00.0,38.3,31.4,08.7,0000.0,0010.60,0005.40,0004.93
2022-10-11 19:10:00,,0820.1,5.03,0.00,29.6,27.8,00.0,38.3,31.4,08.7,0000.0,0011.06,0005.43,0004.93
2022-10-11 19:20:00,,0820.4,5.00,0.00,29.7,26.8,00.0,38.3,31.5,08.6,0000.0,0010.33,0005.46,0004.91
2022-10-11 19:21:00,,0820.3,5.01,0.00,29.6,27.0,00.0,38.3,31.3,08.8,0000.0,0009.91,0005.43,0004.90
2022-10-11 19:22:00,,0820.3,5.01,0.00,29.6,27.2,00.0,38.3,31.4,08.9,0000.0,0009.04,0005.45,0004.92
2022-10-11 19:23:00,,0820.5,4.99,0.00,29.6,27.5,00.0,38.3,31.4,09.1,0000.0,0009.11,0005.48,0004.92
2022-10-11 19:24:00,,0820.5,4.99,0.00,29.6,27.7,00.0,38.3,31.4,09.2,0000.0,0009.15,0005.49,0004.92
2022-10-11 19:25:00,,0820.2,5.06,0.00,29.6,27.9,00.0,38.3,31.4,08.5,0000.0,0010.07,0005.42,0004.91
2022-10-11 19:26:00,,0820.3,5.00,0.00,29.6,28.0,00.0,38.3,31.5,08.5,0000.0,0009.96,0005.38,0004.90
2022-10-11 19:27:00,,0820.3,4.99,0.00,29.6,28.2,00.0,38.3,31.5,08.6,0000.0,0009.98,0005.36,0004.87
2022-10-11 19:28:00,,0820.3,5.01,0.00,29.6,28.3,00.0,38.3,31.6,08.4,0000.0,0010.41,0005.33,0004.85
2022-10-11 19:29:00,,0820.4,5.00,0.00,29.7,28.4,00.0,38.3,31.6,08.5,0000.0,0010.70,0005.31,0004.84
2022-10-11 19:30:00,,0820.5,4.99,0.00,29.7,28.4,00.0,38.3,31.7,08.4,0000.0,0011.06,0005.29,0004.83
2022-10-11 19:31:00,,0820.4,5.00,0.00,29.7,28.5,00.0,38.4,31.8,08.4,0000.0,0011.10,0005.30,0004.82
2022-10-11 19:32:00,,0820.6,5.01,0.00,29.8,27.5,00.0,38.4,31.7,08.4,0000.0,0011.13,0005.28,0004.81
2022-10-11 19:33:00,,0820.6,5.00,0.00,29.7,26.6,00.0,38.3,31.6,08.4,0000.0,0011.36,0005.26,0004.78
2022-10-11 19:34:00,,0820.5,4.99,0.00,29.7,26.7,00.0,38.3,31.6,08.4,0000.0,0011.33,0005.21,0004.75
2022-10-11 19:35:00,,0820.5,5.01,0.00,29.7,26.9,00.0,38.3,31.6,08.5,0000.0,0010.97,0005.18,0004.72
2022-10-11 19:36:00,,0820.5,5.00,0.00,29.7,27.2,00.0,38.3,31.6,08.6,0000.0,0010.38,0005.17,0004.72
2022-10-11 19:37:00,,0820.4,5.00,0.00,29.6,27.4,00.0,38.3,31.6,08.5,0000.0,0010.00,0005.13,0004.70
2022-10-11 19:38:00,,0820.5,5.00,0.00,29.7,27.6,00.0,38.3,31.6,08.8,0000.0,0009.85,0005.08,0004.69
2022-10-11 19:39:00,,0820.4,4.98,0.00,29.7,27.8,00.0,38.3,31.6,09.0,0000.0,0009.46,0005.07,0004.67
2022-10-11 19:40:00,,0820.4,5.00,0.00,29.7,27.9,00.0,38.3,31.7,09.0,0000.0,0009.57,0005.09,0004.66
2022-10-11 19:41:00,,0820.4,5.01,0.00,29.7,28.0,00.0,38.3,31.7,09.1,0000.0,0009.18,0005.11,0004.67
2022-10-11 19:42:00,,0820.4,5.00,0.00,29.7,28.2,00.0,38.3,31.8,09.0,0000.0,0009.82,0005.09,0004.67
2022-10-11 19:43:00,,0820.4,4.99,0.00,29.8,28.3,00.0,38.4,31.8,09.0,0000.0,0009.85,0005.11,0004.68
2022-10-11 19:44:00,,0820.3,5.01,0.00,29.8,28.4,00.0,38.4,31.9,09.1,0000.0,0009.57,0005.09,0004.68
2022-10-11 19:45:00,,0820.4,4.99,0.00,29.8,28.5,00.0,38.4,31.9,09.1,0000.0,0009.65,0005.12,0004.69
2022-10-11 19:46:00,,0820.3,5.00,0.00,29.8,28.1,00.0,38.4,31.9,09.1,0000.0,0009.95,0005.15,0004.70
2022-10-11 19:47:00,,0820.3,5.02,0.00,29.8,26.7,00.0,38.4,31.7,09.2,0000.0,0010.25,0005.20,0004.71
2022-10-11 19:48:00,,0820.3,4.99,0.00,29.8,26.5,00.0,38.4,31.6,09.5,0000.0,0010.30,0005.24,0004.71
2022-10-11 19:49:00,,0820.2,4.99,0.00,29.7,26.7,00.0,38.3,31.6,09.6,0000.0,0010.44,0005.30,0004.74
2022-10-11 19:50:00,,0820.2,5.01,0.00,29.7,27.0,00.0,38.3,31.6,09.7,0000.0,0010.79,0005.34,0004.75
2022-10-11 19:51:00,,0820.2,5.00,0.00,29.7,27.2,00.0,38.3,31.6,09.7,0000.0,0011.05,0005.33,0004.75
2022-10-11 19:52:00,,0820.1,5.00,0.00,29.7,27.4,00.0,38.3,31.6,09.6,0000.0,0011.32,0005.35,0004.76
2022-10-11 19:53:00,,0820.1,5.01,0.00,29.7,27.6,00.0,38.3,31.6,09.5,0000.0,0011.14,0005.34,0004.75
2022-10-11 19:54:00,,0820.1,5.00,0.00,29.7,27.7,00.0,38.3,31.6,09.6,0000.0,0011.09,0005.33,0004.74
2022-10-11 19:55:00,,0820.2,5.00,0.00,29.7,27.9,00.0,38.3,31.7,09.6,0000.0,0011.33,0005.33,0004.74
2022-10-11 19:56:00,,0820.2,4.99,0.00,29.7,28.0,00.0,38.3,31.7,09.7,0000.0,0011.58,0005.34,0004.73
2022-10-11 19:57:00,,0820.2,5.01,0.00,29.7,28.1,00.0,38.4,31.7,09.7,0000.0,0011.51,0005.33,0004.73
2022-10-11 19:58:00,,0820.2,5.01,0.00,29.8,28.2,00.0,38.4,31.8,09.6,0000.0,0011.45,0005.29,0004.71
2022-10-11 19:59:00,,0820.2,4.99,0.00,29.8,28.2,00.0,38.4,31.8,09.7,0000.0,0011.60,0005.30,0004.71
